Powrót do katalogu

STARLINK-3071

AktywnyŁącznośćVLEO
NORAD 49147·PAYLOAD·🇺🇸 United States

Wystrzelony Sep 14, 2021 z Vandenberg Space Force Base

Loading…

Następne Przeloty (najbliższe 24 godziny)

TLE

ŚwieżeSource: CelesTrak SupGP

Epoka: Sep 14, 2026, 21:17 UTC

1 49147C 21082T   26257.88729167 -.00025385  00000+0 -21277-2 0  2570
2 49147  70.0003 137.4237 0002710 270.8083 230.0700 14.98338247    14

Śledź STARLINK-3071 w czasie rzeczywistym z AllMySat

Download on the App Store